Regional Weather Roundup
Issued by NWS Upton, NY

Current Version | Previous Version | Graphics & Text | Print | Product List | Glossary Off
Versions: 1 2 3 4 5 6 7 8 9 10 11 12 13 14 15 16 17 18 19 20 21 22 23 24 25 26 27 28 29 30 31 32 33 34 35 36 37 38 39 40 41 42 43 44 45 46 47 48 49 50

000
ASUS41 KOKX 301304
RWROKX

REGIONAL WEATHER ROUNDUP
NATIONAL WEATHER SERVICE NEW YORK NY
900 AM EDT MON MAY 30 2016

NOTE: "FAIR" INDICATES FEW OR NO CLOUDS BELOW 12,000 FEET WITH NO
SIGNIFICANT WEATHER AND/OR OBSTRUCTIONS TO VISIBILITY.

NYZ071-072-176-178-NJZ106-104-301400-
NEW YORK CITY METRO AREA


CITY           SKY/WX    TMP DP  RH WIND       PRES   REMARKS
CENTRAL PARK   CLOUDY    69  67  93 VRB3      30.04R FOG
LAGUARDIA APRT CLOUDY    70  65  84 W7        30.00R
KENNEDY INTL   CLOUDY    68  66  93 S9        30.02R
NEWARK/LIBERTY CLOUDY    71  68  90 W3        30.01R
BRNX BOT. GARD   N/A     66  66 100 N9        30.02R
TETERBORO      CLOUDY    70  63  78 N3        30.00R FOG
$$

NYZ177-179-078>081-301400-
LONG ISLAND NEW YORK

CITY           SKY/WX    TMP DP  RH WIND       PRES   REMARKS
FARMINGDALE    LGT RAIN  67  66  97 SW8       30.01R
ISLIP          LGT RAIN  67  66  97 SW13      30.01R FOG
SHIRLEY        RAIN      67  67 100 SW9       30.02R VSB 1
RIVERHEAD        N/A     68  68 100 W1        29.99S
WESTHAMPTON    FOG       67  66  97 SW12G20   30.02S VSB 1
EAST HAMPTON   CLOUDY    64  64  97 SW9       30.01S
MONTAUK POINT    N/A     64  64 100 SW9       30.03S
$$

NYZ052-065-067-301400-
HUDSON VALLEY

CITY           SKY/WX    TMP DP  RH WIND       PRES   REMARKS
WHITE PLAINS   FOG       68  66  93 NW6       30.01R VSB 1
NEWBURGH       CLOUDY    66  66 100 W7        30.02S FOG
MONTGOMERY     CLOUDY    67  64  90 W3        30.01S
POUGHKEEPSIE   CLOUDY    68  63  84 CALM      29.99F
ALBANY         PTSUNNY   68  62  81 S10       29.98S
$$

NJZ001-105-106-008-010-013-015-019>022-104-301400-
NEW JERSEY

CITY           SKY/WX    TMP DP  RH WIND       PRES   REMARKS
NEWARK/LIBERTY CLOUDY    71  68  90 W3        30.01R
TETERBORO      CLOUDY    70  63  78 N3        30.00R FOG
CALDWELL       CLOUDY    70  65  84 CALM      30.02R
MORRISTOWN     CLOUDY    70  68  94 CALM      30.02R
SOMERVILLE     CLOUDY    71  66  84 W3        30.00R
SUSSEX         CLOUDY    69  64  84 CALM      30.02R
ANDOVER          N/A     67  64  90 CALM      30.03R
TRENTON        CLOUDY    70  66  87 SW3       30.02R
MILLVILLE      CLOUDY    74  71  91 W7        30.02R
ATLANTIC CITY  HVY RAIN  72  71  97 W3        30.02S VSB 1/4
WRIGHTSTOWN    CLOUDY    71  70  95 VRB5      30.00S
TOMS RIVER     CLOUDY   N/A N/A N/A W6        30.02S
BELMAR         CLOUDY    71  70  96 SW5       30.03S
$$

PAZ047>061-062-071-301400-
EASTERN PENNSYLVANIA

CITY           SKY/WX    TMP DP  RH WIND       PRES   REMARKS
PHILADELPHIA   CLOUDY    71  67  87 NW8       30.03R
ALLENTOWN      CLOUDY    69  65  86 CALM      30.03R
SCRANTON       CLOUDY    67  62  84 W5        30.03F
$$

CTZ002-004>006-009-010-012-RIZ004-006-007-MAZ004-011-015-301400-
SOUTHERN NEW ENGLAND
 IN CT

CITY           SKY/WX    TMP DP  RH WIND       PRES   REMARKS
BRADLEY INTL   LGT RAIN  65  63  93 NE3       30.00R FOG
HARTFORD       CLOUDY    71  67  87 CALM      29.99S
DANBURY        LGT RAIN  65  62  90 NW6       30.02R FOG
WTRBRY/OXFORD  FOG       64  63  94 NW3       30.03R VSB 5/8
BRIDGEPORT     FOG       66  64  93 E3        29.99R VSB 3/4
MERIDEN        CLOUDY    70  66  87 SW3       29.99S
NEW HAVEN      LGT RAIN  65  64  97 E3        29.99S VSB 1
CHESTER        DRZL/FOG  66  66 100 VRB5      30.00F VSB 1/4
GROTON         HVY RAIN  64  64 100 S6        30.00S FOG
WILLIMANTIC    LGT RAIN  66  62  87 SE3       30.01S

 IN RI

CITY           SKY/WX    TMP DP  RH WIND       PRES   REMARKS
PROVIDENCE     RAIN      59  57  93 CALM      30.02F FOG
BLOCK ISLAND   LGT RAIN  61  61 100 SW14G20   30.03S VSB 1
WESTERLY       RAIN      65  62  90 S3        30.02S FOG

 IN MA

CITY           SKY/WX    TMP DP  RH WIND       PRES   REMARKS
BOSTON         LGT RAIN  55  54  96 SE5       30.03S
WORCESTER      LGT RAIN  58  56  93 CALM      30.02S
WESTFIELD      LGT RAIN  63  60  90 NE3       30.00S
PROVINCETOWN   RAIN      55  54  96 E5        30.03F FOG
NANTUCKET      FOG       63  62  97 S13       30.04S VSB 1/4
$$

ANZ330-335-338-340-345-350-353-355-301400-
COASTAL MARINE OBSERVATIONS


STATION/POSITION TIME  SKY/WX   TEMP    WIND        PRES    VSBY  WAVE
                                AIR SEA DIR/SP/G                  HT/PER
                 (UTC)          (F)     (DEG/KT/KT) (MB)    (MI)  (FT/S)
NY HARB ENTRANCE 1150            62 58  200/ 12/ 14 1015.6          3/ 8
20S FIRE ISLAND  1150            63 61  210/ 12/ 14 1015.8          3/ 8
GREAT SOUTH BAY  1200            65 71  200/ 14/ 17   N/A
23 SSW MONTAUK P 1250            63 59  210/ 16/ 17 1016.1          3/ 8
15 E BARNEGAT LI 1222               61                N/A           3/ 8
HUDSON CANYON    1150            64 58              1017.0          3/ 6
KINGS POINT      1200            67 59              1015.2
EXECUTION ROCKS  NOT AVBL
CENTRAL LI SOUND 1200            64     110/  4/  4   N/A           0
EASTERN LI SOUND 1200            60 54  130/  4/  6   N/A
ROBBINS REEF     1200            69     270/  3/  4 1014.9
$$


>>>>>>>>>>>>>>>>>>>>>>>>>>>> KEY <<<<<<<<<<<<<<<<<<<<<<<<<<<
>                                                          <
>     SKY/WX - SKY CONDITION/PRESENT WEATHER               <
>     TMP    - TEMPERATURE IN FAHRENHEIT                   <
>     DP     - DEWPOINT IN FAHRENHEIT                      <
>     RH     - RELATIVE HUMIDITY IN PERCENT                <
>     WIND   - DIRECTION AND SPEED IN MPH                  <
>     PRES   - MEAN SEA LEVEL PRESSURE IN INCHES OF HG     <
>     WCI    - WIND CHILL INDEX                            <
>     VSB    - VISIBILITY IN MILES                         <
>     HX     - HEAT INDEX                                  <
>     TC     - TEMPERATURE IN CELSIUS                      <
>     VRB    - VARIABLE WIND DIRECTION                     <
>                                                          <
>>>>>>>>>>>>>>>>>>>>>>>>>>>> KEY <<<<<<<<<<<<<<<<<<<<<<<<<<<





USA.gov is the U.S. government's official web portal to all federal, state and local government web resources and services.